Time,TemperatureF,DewpointF,PressureIn,WindDirection,WindDirectionDegrees,WindSpeedMPH,WindSpeedGustMPH,Humidity,HourlyPrecipIn,Conditions,Clouds,dailyrainin,SoftwareType,DateUTC
2013-01-10 00:03:00,52.0,28.0,-100.00,WNW,298,13.0,-999.0,40,-99.99,,,-99.99,,2013-01-10 05:03:00,
2013-01-10 00:12:00,52.0,28.0,-100.00,WNW,298,13.0,-999.0,40,-99.99,,,-99.99,,2013-01-10 05:12:00,
2013-01-10 00:22:00,53.0,26.0,-100.00,WNW,299,16.0,-999.0,35,-99.99,,,-99.99,,2013-01-10 05:22:00,
2013-01-10 00:33:00,53.0,25.0,-100.00,WNW,297,10.0,-999.0,34,-99.99,,,-99.99,,2013-01-10 05:33:00,
2013-01-10 00:42:00,53.0,25.0,-100.00,WNW,297,10.0,-999.0,34,-99.99,,,-99.99,,2013-01-10 05:42:00,
2013-01-10 00:53:00,52.0,25.0,-100.00,WNW,283,10.0,-999.0,34,-99.99,,,-99.99,,2013-01-10 05:53:00,
2013-01-10 01:02:00,52.0,25.0,-100.00,WNW,283,10.0,-999.0,34,-99.99,,,-99.99,,2013-01-10 06:02:00,
2013-01-10 01:12:00,52.0,25.0,-100.00,WNW,283,10.0,-999.0,34,-99.99,,,-99.99,,2013-01-10 06:12:00,
2013-01-10 01:22:00,52.0,25.0,-100.00,WNW,289,9.0,-999.0,36,-99.99,,,-99.99,,2013-01-10 06:22:00,
2013-01-10 01:32:00,52.0,26.0,-100.00,WNW,297,8.0,-999.0,37,-99.99,,,-99.99,,2013-01-10 06:32:00,
2013-01-10 01:42:00,52.0,26.0,-100.00,WNW,297,8.0,-999.0,37,-99.99,,,-99.99,,2013-01-10 06:42:00,
2013-01-10 01:52:00,51.0,26.0,-100.00,WNW,301,8.0,-999.0,38,-99.99,,,-99.99,,2013-01-10 06:52:00,
2013-01-10 02:02:00,51.0,27.0,-100.00,WNW,301,11.0,-999.0,39,-99.99,,,-99.99,,2013-01-10 07:02:00,
2013-01-10 02:12:00,51.0,27.0,-100.00,WNW,301,11.0,-999.0,39,-99.99,,,-99.99,,2013-01-10 07:12:00,
2013-01-10 02:22:00,51.0,28.0,-100.00,WNW,295,11.0,-999.0,41,-99.99,,,-99.99,,2013-01-10 07:22:00,
2013-01-10 02:32:00,50.0,28.0,-100.00,WNW,301,9.0,-999.0,42,-99.99,,,-99.99,,2013-01-10 07:32:00,
2013-01-10 02:42:00,50.0,28.0,-100.00,WNW,301,9.0,-999.0,42,-99.99,,,-99.99,,2013-01-10 07:42:00,
2013-01-10 02:52:00,50.0,29.0,-100.00,WNW,302,12.0,-999.0,43,-99.99,,,-99.99,,2013-01-10 07:52:00,
2013-01-10 03:02:00,50.0,29.0,-100.00,NW,305,9.0,-999.0,44,-99.99,,,-99.99,,2013-01-10 08:02:00,
2013-01-10 03:12:00,50.0,29.0,-100.00,NW,305,9.0,-999.0,44,-99.99,,,-99.99,,2013-01-10 08:12:00,
2013-01-10 03:22:00,49.0,29.0,-100.00,NW,307,8.0,-999.0,45,-99.99,,,-99.99,,2013-01-10 08:22:00,
2013-01-10 03:32:00,49.0,29.0,-100.00,NW,308,9.0,-999.0,46,-99.99,,,-99.99,,2013-01-10 08:32:00,
2013-01-10 03:42:00,49.0,29.0,-100.00,NW,308,9.0,-999.0,46,-99.99,,,-99.99,,2013-01-10 08:42:00,
2013-01-10 03:53:00,49.0,29.0,-100.00,NW,306,8.0,-999.0,46,-99.99,,,-99.99,,2013-01-10 08:53:00,
2013-01-10 04:02:00,48.0,29.0,-100.00,NW,308,6.0,-999.0,46,-99.99,,,-99.99,,2013-01-10 09:02:00,
2013-01-10 04:12:00,48.0,29.0,-100.00,NW,308,6.0,-999.0,46,-99.99,,,-99.99,,2013-01-10 09:12:00,
2013-01-10 04:22:00,48.0,29.0,-100.00,NW,324,7.0,-999.0,47,-99.99,,,-99.99,,2013-01-10 09:22:00,
2013-01-10 04:32:00,48.0,29.0,-100.00,NNW,337,5.0,-999.0,47,-99.99,,,-99.99,,2013-01-10 09:32:00,
2013-01-10 04:42:00,48.0,29.0,-100.00,NNW,337,5.0,-999.0,47,-99.99,,,-99.99,,2013-01-10 09:42:00,
2013-01-10 04:52:00,47.0,28.0,-100.00,NNW,346,4.0,-999.0,47,-99.99,,,-99.99,,2013-01-10 09:52:00,
2013-01-10 05:03:00,47.0,28.0,-100.00,ENE,62,2.0,-999.0,46,-99.99,,,-99.99,,2013-01-10 10:03:00,
2013-01-10 05:12:00,47.0,28.0,-100.00,ENE,62,2.0,-999.0,46,-99.99,,,-99.99,,2013-01-10 10:12:00,
2013-01-10 05:22:00,47.0,27.0,-100.00,NNW,327,4.0,-999.0,45,-99.99,,,-99.99,,2013-01-10 10:22:00,
2013-01-10 05:32:00,47.0,26.0,-100.00,NNW,338,2.0,-999.0,43,-99.99,,,-99.99,,2013-01-10 10:32:00,
2013-01-10 05:42:00,47.0,26.0,-100.00,NNW,338,2.0,-999.0,43,-99.99,,,-99.99,,2013-01-10 10:42:00,
2013-01-10 05:53:00,47.0,25.0,-100.00,NW,311,5.0,-999.0,42,-99.99,,,-99.99,,2013-01-10 10:53:00,
2013-01-10 06:02:00,46.0,24.0,-100.00,NW,314,5.0,-999.0,42,-99.99,,,-99.99,,2013-01-10 11:02:00,
2013-01-10 06:12:00,46.0,24.0,-100.00,NW,314,5.0,-999.0,42,-99.99,,,-99.99,,2013-01-10 11:12:00,
2013-01-10 06:22:00,46.0,24.0,-100.00,NW,321,4.0,-999.0,42,-99.99,,,-99.99,,2013-01-10 11:22:00,
2013-01-10 06:33:00,46.0,24.0,-100.00,NW,314,6.0,-999.0,41,-99.99,,,-99.99,,2013-01-10 11:33:00,
2013-01-10 06:43:00,46.0,24.0,-100.00,NW,314,6.0,-999.0,41,-99.99,,,-99.99,,2013-01-10 11:43:00,
2013-01-10 06:53:00,46.0,23.0,-100.00,NW,307,7.0,-999.0,41,-99.99,,,-99.99,,2013-01-10 11:53:00,
2013-01-10 07:03:00,45.0,23.0,-100.00,WNW,301,6.0,-999.0,41,-99.99,,,-99.99,,2013-01-10 12:03:00,
2013-01-10 07:12:00,45.0,23.0,-100.00,WNW,301,6.0,-999.0,41,-99.99,,,-99.99,,2013-01-10 12:12:00,
2013-01-10 07:22:00,45.0,23.0,-100.00,WNW,290,6.0,-999.0,42,-99.99,,,-99.99,,2013-01-10 12:22:00,
2013-01-10 07:33:00,45.0,23.0,-100.00,WNW,296,7.0,-999.0,42,-99.99,,,-99.99,,2013-01-10 12:33:00,
2013-01-10 07:43:00,45.0,23.0,-100.00,WNW,296,7.0,-999.0,42,-99.99,,,-99.99,,2013-01-10 12:43:00,
2013-01-10 07:53:00,45.0,24.0,-100.00,WNW,299,8.0,-999.0,43,-99.99,,,-99.99,,2013-01-10 12:53:00,
2013-01-10 08:02:00,44.0,24.0,-100.00,WNW,295,8.0,-999.0,43,-99.99,,,-99.99,,2013-01-10 13:02:00,
2013-01-10 08:12:00,44.0,24.0,-100.00,WNW,295,8.0,-999.0,43,-99.99,,,-99.99,,2013-01-10 13:12:00,
2013-01-10 08:22:00,44.0,24.0,-100.00,WNW,301,8.0,-999.0,44,-99.99,,,-99.99,,2013-01-10 13:22:00,
2013-01-10 08:32:00,44.0,24.0,-100.00,NW,305,8.0,-999.0,44,-99.99,,,-99.99,,2013-01-10 13:32:00,
2013-01-10 08:42:00,44.0,24.0,-100.00,NW,305,8.0,-999.0,44,-99.99,,,-99.99,,2013-01-10 13:42:00,
2013-01-10 08:53:00,44.0,24.0,-100.00,NW,319,7.0,-999.0,45,-99.99,,,-99.99,,2013-01-10 13:53:00,
2013-01-10 09:02:00,44.0,24.0,-100.00,NW,320,7.0,-999.0,45,-99.99,,,-99.99,,2013-01-10 14:02:00,
2013-01-10 09:12:00,44.0,24.0,-100.00,NW,320,7.0,-999.0,45,-99.99,,,-99.99,,2013-01-10 14:12:00,
2013-01-10 09:22:00,45.0,24.0,-100.00,NW,323,7.0,-999.0,44,-99.99,,,-99.99,,2013-01-10 14:22:00,
2013-01-10 09:33:00,45.0,24.0,-100.00,NNW,330,8.0,-999.0,43,-99.99,,,-99.99,,2013-01-10 14:33:00,
2013-01-10 09:43:00,45.0,24.0,-100.00,NNW,330,8.0,-999.0,43,-99.99,,,-99.99,,2013-01-10 14:43:00,
2013-01-10 09:53:00,46.0,25.0,-100.00,NNW,333,9.0,-999.0,43,-99.99,,,-99.99,,2013-01-10 14:53:00,
2013-01-10 10:03:00,46.0,25.0,-100.00,NNW,330,9.0,-999.0,43,-99.99,,,-99.99,,2013-01-10 15:03:00,
2013-01-10 10:12:00,46.0,25.0,-100.00,NNW,330,9.0,-999.0,43,-99.99,,,-99.99,,2013-01-10 15:12:00,
2013-01-10 10:23:00,46.0,25.0,-100.00,NW,321,7.0,-999.0,42,-99.99,,,-99.99,,2013-01-10 15:23:00,
2013-01-10 10:33:00,47.0,25.0,-100.00,NW,311,6.0,-999.0,41,-99.99,,,-99.99,,2013-01-10 15:33:00,
2013-01-10 10:43:00,47.0,25.0,-100.00,NW,311,6.0,-999.0,41,-99.99,,,-99.99,,2013-01-10 15:43:00,
2013-01-10 10:53:00,47.0,24.0,-100.00,NW,312,8.0,-999.0,41,-99.99,,,-99.99,,2013-01-10 15:53:00,
2013-01-10 11:03:00,47.0,24.0,-100.00,NW,315,8.0,-999.0,40,-99.99,,,-99.99,,2013-01-10 16:03:00,
2013-01-10 11:13:00,47.0,24.0,-100.00,NW,315,8.0,-999.0,40,-99.99,,,-99.99,,2013-01-10 16:13:00,
2013-01-10 11:23:00,47.0,24.0,-100.00,NW,309,9.0,-999.0,39,-99.99,,,-99.99,,2013-01-10 16:23:00,
2013-01-10 11:33:00,48.0,24.0,-100.00,NW,309,9.0,-999.0,39,-99.99,,,-99.99,,2013-01-10 16:33:00,
2013-01-10 11:43:00,48.0,24.0,-100.00,NW,309,9.0,-999.0,39,-99.99,,,-99.99,,2013-01-10 16:43:00,
2013-01-10 11:53:00,48.0,23.0,-100.00,NW,308,9.0,-999.0,38,-99.99,,,-99.99,,2013-01-10 16:53:00,
2013-01-10 12:03:00,48.0,24.0,-100.00,NW,305,9.0,-999.0,37,-99.99,,,-99.99,,2013-01-10 17:03:00,
2013-01-10 12:12:00,48.0,24.0,-100.00,NW,305,9.0,-999.0,37,-99.99,,,-99.99,,2013-01-10 17:12:00,
2013-01-10 12:22:00,49.0,24.0,-100.00,NNW,327,7.0,-999.0,37,-99.99,,,-99.99,,2013-01-10 17:22:00,
2013-01-10 12:33:00,50.0,24.0,-100.00,NW,321,6.0,-999.0,36,-99.99,,,-99.99,,2013-01-10 17:33:00,
2013-01-10 12:42:00,50.0,24.0,-100.00,NW,321,6.0,-999.0,36,-99.99,,,-99.99,,2013-01-10 17:42:00,
2013-01-10 12:53:00,49.0,23.0,-100.00,NW,320,9.0,-999.0,35,-99.99,,,-99.99,,2013-01-10 17:53:00,
2013-01-10 13:03:00,50.0,23.0,-100.00,NW,309,6.0,-999.0,35,-99.99,,,-99.99,,2013-01-10 18:03:00,
2013-01-10 13:12:00,50.0,23.0,-100.00,NW,309,6.0,-999.0,35,-99.99,,,-99.99,,2013-01-10 18:12:00,
2013-01-10 13:23:00,51.0,23.0,-100.00,NNW,331,5.0,-999.0,34,-99.99,,,-99.99,,2013-01-10 18:23:00,
2013-01-10 13:33:00,51.0,23.0,-100.00,NW,306,9.0,-999.0,33,-99.99,,,-99.99,,2013-01-10 18:33:00,
2013-01-10 13:43:00,51.0,23.0,-100.00,NW,306,9.0,-999.0,33,-99.99,,,-99.99,,2013-01-10 18:43:00,
2013-01-10 13:53:00,51.0,23.0,-100.00,WNW,301,9.0,-999.0,33,-99.99,,,-99.99,,2013-01-10 18:53:00,
2013-01-10 14:03:00,51.0,23.0,-100.00,NW,316,6.0,-999.0,33,-99.99,,,-99.99,,2013-01-10 19:03:00,
2013-01-10 14:13:00,51.0,23.0,-100.00,NW,316,6.0,-999.0,33,-99.99,,,-99.99,,2013-01-10 19:13:00,
2013-01-10 14:23:00,51.0,23.0,-100.00,NW,320,9.0,-999.0,32,-99.99,,,-99.99,,2013-01-10 19:23:00,
2013-01-10 14:33:00,52.0,23.0,-100.00,NNW,347,7.0,-999.0,31,-99.99,,,-99.99,,2013-01-10 19:33:00,
2013-01-10 14:43:00,52.0,23.0,-100.00,NNW,347,7.0,-999.0,31,-99.99,,,-99.99,,2013-01-10 19:43:00,
2013-01-10 14:53:00,52.0,23.0,-100.00,NNW,331,6.0,-999.0,31,-99.99,,,-99.99,,2013-01-10 19:53:00,
2013-01-10 15:03:00,52.0,23.0,-100.00,NNW,335,6.0,-999.0,32,-99.99,,,-99.99,,2013-01-10 20:03:00,
2013-01-10 15:13:00,52.0,23.0,-100.00,NNW,335,6.0,-999.0,32,-99.99,,,-99.99,,2013-01-10 20:13:00,
2013-01-10 15:24:00,52.0,23.0,-100.00,North,351,6.0,-999.0,31,-99.99,,,-99.99,,2013-01-10 20:24:00,
2013-01-10 15:33:00,53.0,23.0,-100.00,NNW,342,5.0,-999.0,30,-99.99,,,-99.99,,2013-01-10 20:33:00,
2013-01-10 15:43:00,53.0,23.0,-100.00,NNW,342,5.0,-999.0,30,-99.99,,,-99.99,,2013-01-10 20:43:00,
2013-01-10 15:53:00,54.0,23.0,-100.00,NNW,328,4.0,-999.0,30,-99.99,,,-99.99,,2013-01-10 20:53:00,
2013-01-10 16:04:00,54.0,23.0,-100.00,NW,325,4.0,-999.0,30,-99.99,,,-99.99,,2013-01-10 21:04:00,
2013-01-10 16:13:00,54.0,23.0,-100.00,NW,325,4.0,-999.0,30,-99.99,,,-99.99,,2013-01-10 21:13:00,
2013-01-10 16:23:00,53.0,22.0,-100.00,North,358,4.0,-999.0,29,-99.99,,,-99.99,,2013-01-10 21:23:00,
2013-01-10 16:33:00,53.0,22.0,-100.00,North,357,4.0,-999.0,30,-99.99,,,-99.99,,2013-01-10 21:33:00,
2013-01-10 16:42:00,53.0,22.0,-100.00,North,357,4.0,-999.0,30,-99.99,,,-99.99,,2013-01-10 21:42:00,
2013-01-10 16:53:00,53.0,22.0,-100.00,NNE,20,3.0,-999.0,30,-99.99,,,-99.99,,2013-01-10 21:53:00,
2013-01-10 17:04:00,52.0,23.0,-100.00,NNE,30,4.0,-999.0,32,-99.99,,,-99.99,,2013-01-10 22:04:00,
2013-01-10 17:12:00,52.0,23.0,-100.00,NNE,30,4.0,-999.0,32,-99.99,,,-99.99,,2013-01-10 22:12:00,
2013-01-10 17:27:00,52.0,23.0,-100.00,NE,54,6.0,-999.0,33,-99.99,,,-99.99,,2013-01-10 22:27:00,
2013-01-10 17:33:00,52.0,23.0,-100.00,NE,44,4.0,-999.0,33,-99.99,,,-99.99,,2013-01-10 22:33:00,
2013-01-10 17:43:00,52.0,23.0,-100.00,NE,44,4.0,-999.0,33,-99.99,,,-99.99,,2013-01-10 22:43:00,
2013-01-10 18:03:00,52.0,24.0,-100.00,NE,42,3.0,-999.0,33,-99.99,,,-99.99,,2013-01-10 23:03:00,
2013-01-10 18:13:00,52.0,24.0,-100.00,NE,42,3.0,-999.0,33,-99.99,,,-99.99,,2013-01-10 23:13:00,
2013-01-10 18:23:00,51.0,24.0,-100.00,NE,45,5.0,-999.0,33,-99.99,,,-99.99,,2013-01-10 23:23:00,
2013-01-10 18:33:00,51.0,24.0,-100.00,NE,40,4.0,-999.0,34,-99.99,,,-99.99,,2013-01-10 23:33:00,
2013-01-10 18:43:00,51.0,24.0,-100.00,NE,40,4.0,-999.0,34,-99.99,,,-99.99,,2013-01-10 23:43:00,
2013-01-10 18:53:00,51.0,24.0,-100.00,NE,41,4.0,-999.0,35,-99.99,,,-99.99,,2013-01-10 23:53:00,
2013-01-10 19:03:00,51.0,24.0,-100.00,NE,45,6.0,-999.0,36,-99.99,,,-99.99,,2013-01-11 00:03:00,
2013-01-10 19:13:00,51.0,24.0,-100.00,NE,45,6.0,-999.0,36,-99.99,,,-99.99,,2013-01-11 00:13:00,
2013-01-10 19:23:00,50.0,25.0,-100.00,NE,52,6.0,-999.0,36,-99.99,,,-99.99,,2013-01-11 00:23:00,
2013-01-10 19:33:00,50.0,25.0,-100.00,ENE,70,5.0,-999.0,37,-99.99,,,-99.99,,2013-01-11 00:33:00,
2013-01-10 19:42:00,50.0,25.0,-100.00,ENE,70,5.0,-999.0,37,-99.99,,,-99.99,,2013-01-11 00:42:00,
2013-01-10 19:53:00,50.0,27.0,-100.00,ESE,105,5.0,-999.0,41,-99.99,,,-99.99,,2013-01-11 00:53:00,
2013-01-10 20:03:00,48.0,28.0,-100.00,ESE,106,5.0,-999.0,45,-99.99,,,-99.99,,2013-01-11 01:03:00,
2013-01-10 20:13:00,48.0,28.0,-100.00,ESE,106,5.0,-999.0,45,-99.99,,,-99.99,,2013-01-11 01:13:00,
2013-01-10 20:23:00,48.0,28.0,-100.00,ESE,102,5.0,-999.0,46,-99.99,,,-99.99,,2013-01-11 01:23:00,
2013-01-10 20:34:00,47.0,27.0,-100.00,East,92,5.0,-999.0,45,-99.99,,,-99.99,,2013-01-11 01:34:00,
2013-01-10 20:43:00,47.0,27.0,-100.00,East,92,5.0,-999.0,45,-99.99,,,-99.99,,2013-01-11 01:43:00,
2013-01-10 20:53:00,47.0,27.0,-100.00,East,98,5.0,-999.0,45,-99.99,,,-99.99,,2013-01-11 01:53:00,
2013-01-10 21:03:00,47.0,26.0,-100.00,ESE,105,5.0,-999.0,45,-99.99,,,-99.99,,2013-01-11 02:03:00,
2013-01-10 21:13:00,47.0,26.0,-100.00,ESE,105,5.0,-999.0,45,-99.99,,,-99.99,,2013-01-11 02:13:00,
2013-01-10 21:23:00,47.0,26.0,-100.00,East,101,5.0,-999.0,45,-99.99,,,-99.99,,2013-01-11 02:23:00,
2013-01-10 21:33:00,46.0,26.0,-100.00,ESE,104,5.0,-999.0,45,-99.99,,,-99.99,,2013-01-11 02:33:00,
2013-01-10 21:43:00,46.0,26.0,-100.00,ESE,104,5.0,-999.0,45,-99.99,,,-99.99,,2013-01-11 02:43:00,
2013-01-10 22:03:00,46.0,27.0,-100.00,ESE,109,4.0,-999.0,46,-99.99,,,-99.99,,2013-01-11 03:03:00,
2013-01-10 22:12:00,46.0,27.0,-100.00,ESE,109,4.0,-999.0,46,-99.99,,,-99.99,,2013-01-11 03:12:00,
2013-01-10 22:23:00,46.0,27.0,-100.00,East,87,5.0,-999.0,46,-99.99,,,-99.99,,2013-01-11 03:23:00,
2013-01-10 22:33:00,46.0,27.0,-100.00,East,94,4.0,-999.0,47,-99.99,,,-99.99,,2013-01-11 03:33:00,
2013-01-10 22:43:00,46.0,27.0,-100.00,East,94,4.0,-999.0,47,-99.99,,,-99.99,,2013-01-11 03:43:00,
2013-01-10 22:53:00,46.0,27.0,-100.00,East,86,5.0,-999.0,48,-99.99,,,-99.99,,2013-01-11 03:53:00,
2013-01-10 23:02:00,45.0,27.0,-100.00,East,97,6.0,-999.0,48,-99.99,,,-99.99,,2013-01-11 04:02:00,
2013-01-10 23:12:00,45.0,27.0,-100.00,East,97,6.0,-999.0,48,-99.99,,,-99.99,,2013-01-11 04:12:00,
2013-01-10 23:22:00,45.0,27.0,-100.00,East,95,7.0,-999.0,49,-99.99,,,-99.99,,2013-01-11 04:22:00,
2013-01-10 23:33:00,45.0,27.0,-100.00,East,101,7.0,-999.0,49,-99.99,,,-99.99,,2013-01-11 04:33:00,
2013-01-10 23:43:00,45.0,27.0,-100.00,East,101,7.0,-999.0,49,-99.99,,,-99.99,,2013-01-11 04:43:00,
2013-01-10 23:53:00,44.0,27.0,-100.00,East,98,6.0,-999.0,50,-99.99,,,-99.99,,2013-01-11 04:53:00,